Location: Ertinghausen
(51.6624°N, 9.7874°E)
Time: 11:09:09
(UTC+00:00)

ALOS - Pass Details

Date: 23 May 2024
Orbit: 672 x 676 km, 98.0° (Epoch: 23 June)

Event Time Altitude Azimuth Distance (km) Brightness Sun altitude
Rises 01:20:42 0° 22° (NNE) 3,041 7.6 -12.8°
Reaches altitude 10° 01:23:15 10° 35° (NE) 2,121 6.3 -12.6°
Maximum altitude 01:27:12 27° 93° (E) 1,287 4.0 -12.3°
Drops below altitude 10° 01:31:07 10° 152° (SSE) 2,104 4.5 -12.0°
Enters shadow 01:32:45 - 161° (SSE) 2,682 5.0 -11.9°
